Weather History for Beckley, WV

Change the Weather History Date:

Monday, December 3, 2012

  Actual Average Record
Temperature  
Mean Temperature 60 °F 38 °F  
Max Temperature 66 °F 46 °F 69 °F (1982)
Min Temperature 53 °F 30 °F 0 °F (1942)
Degree Days  
Heating Degree Days 5 27  
Month to date heating degree days 31 81  
Since 1 July heating degree days 1285 1221  
Cooling Degree Days 0 0  
Month to date cooling degree days 0 0  
Year to date cooling degree days 761 557  
Growing Degree Days 10 (Base 50)    
Moisture  
Dew Point 48 °F    
Average Humidity 70    
Maximum Humidity 83    
Minimum Humidity 56    
Precipitation  
Precipitation T in 0.10 in 1.40 in (1905)
Month to date precipitation T 0.29  
Year to date precipitation 41.18 38.48  
Snow  
Snow 0.00 in - - ()
Month to date snowfall 0.0  
Since 1 September snowfall 22.9  
Snow Depth 0.00 in    
Sea Level Pressure  
Sea Level Pressure 30.24 in    
Wind  
Wind Speed 7 mph (SW)    
Max Wind Speed 13 mph    
Max Gust Speed 16 mph    
Visibility 10 miles    
Events Rain    
T = Trace of Precipitation, MM = Missing Value Source: NWS Daily Summary

Daily Weather History Graph

Daily Weather History Graph

Search for Another Location

Airport:

Trip Planner

Search our weather history database for the weather conditions in past years. The results will help you decide how hot, cold, wet, or windy it might be!

Date:

Astronomy

Dec. 03, 2012 Rise Set
Actual Time 7:23 AM EST 5:05 PM EST
Civil Twilight 6:54 AM EST 5:34 PM EST
Nautical Twilight 6:21 AM EST 6:07 PM EST
Astronomical Twilight 5:50 AM EST 6:38 PM EST
Moon 9:48 PM EST (12/3) 10:48 AM EST (12/3)
Length of Visible Light 10h 40m
Length of Day
9h 42m
Waning Gibbous, 78% of the Moon is Illuminated
Dec 3
Waning Gibbous
Dec 6
Last Quarter
Dec 13
New
Dec 20
First Quarter
Dec 28
Full

Hourly Weather History & Observations

Time (EST) Temp. Dew Point Humidity Pressure Visibility Wind Dir Wind Speed Gust Speed Precip Events Conditions
12:51 AM 55.0 °F 48.0 °F 77% 30.21 in 10.0 mi WSW 5.8 mph - 0.00 in   Overcast
1:51 AM 55.0 °F 48.0 °F 77% 30.22 in 10.0 mi SW 9.2 mph - N/A   Overcast
2:51 AM 54.0 °F 48.0 °F 80% 30.22 in 10.0 mi SW 6.9 mph - N/A   Overcast
3:15 AM 53.6 °F 48.2 °F 82% 30.26 in 10.0 mi SW 5.8 mph - N/A   Overcast
3:51 AM 54.0 °F 48.0 °F 80% 30.22 in 10.0 mi SW 3.5 mph - N/A   Overcast
4:51 AM 55.0 °F 48.0 °F 77% 30.22 in 10.0 mi SSW 5.8 mph - N/A   Overcast
5:51 AM 54.0 °F 48.0 °F 80% 30.23 in 10.0 mi SSW 5.8 mph - N/A   Overcast
6:47 AM 53.6 °F 48.2 °F 82% 30.27 in 10.0 mi SW 5.8 mph - N/A   Mostly Cloudy
6:51 AM 53.1 °F 48.0 °F 83% 30.25 in 10.0 mi SW 6.9 mph - N/A   Mostly Cloudy
7:31 AM 55.4 °F 48.2 °F 77% 30.28 in 10.0 mi SW 4.6 mph - N/A   Overcast
7:46 AM 55.4 °F 48.2 °F 77% 30.29 in 10.0 mi SW 4.6 mph - N/A   Overcast
7:51 AM 54.0 °F 48.0 °F 80% 30.26 in 10.0 mi WSW 4.6 mph - N/A   Overcast
8:08 AM 55.4 °F 48.2 °F 77% 30.29 in 10.0 mi SW 5.8 mph - N/A   Overcast
8:51 AM 55.9 °F 48.0 °F 75% 30.27 in 10.0 mi SW 5.8 mph - N/A   Overcast
9:15 AM 57.2 °F 48.2 °F 72% 30.30 in 10.0 mi SW 5.8 mph - N/A   Mostly Cloudy
9:31 AM 57.2 °F 48.2 °F 72% 30.31 in 10.0 mi SW 5.8 mph - N/A   Overcast
9:51 AM 57.9 °F 48.9 °F 72% 30.27 in 10.0 mi SW 6.9 mph - N/A   Overcast
10:22 AM 59.0 °F 48.2 °F 67% 30.31 in 10.0 mi SW 8.1 mph - N/A   Overcast
10:51 AM 60.1 °F 48.9 °F 67% 30.27 in 10.0 mi SW 8.1 mph - N/A   Overcast
11:04 AM 59.0 °F 48.2 °F 67% 30.30 in 10.0 mi SW 5.8 mph - N/A   Overcast
11:12 AM 59.0 °F 48.2 °F 67% 30.30 in 10.0 mi SW 9.2 mph - 0.00 in Rain Light Rain
11:51 AM 61.0 °F 50.0 °F 67% 30.24 in 10.0 mi WSW 9.2 mph - 0.00 in   Partly Cloudy
12:51 PM 64.0 °F 51.1 °F 63% 30.21 in 10.0 mi WNW 10.4 mph - N/A   Partly Cloudy
1:51 PM 63.0 °F 50.0 °F 63% 30.21 in 10.0 mi WSW 6.9 mph - N/A   Scattered Clouds
2:51 PM 66.0 °F 50.0 °F 56% 30.19 in 10.0 mi West 10.4 mph - N/A   Scattered Clouds
3:51 PM 64.0 °F 50.0 °F 60% 30.19 in 10.0 mi WSW 6.9 mph - N/A   Scattered Clouds
4:51 PM 61.0 °F 48.9 °F 64% 30.20 in 10.0 mi SSW 5.8 mph - N/A   Clear
5:51 PM 60.1 °F 48.9 °F 67% 30.21 in 10.0 mi SSE 4.6 mph - N/A   Clear
6:51 PM 55.9 °F 48.0 °F 75% 30.23 in 10.0 mi SE 4.6 mph - N/A   Clear
7:51 PM 57.9 °F 48.0 °F 70% 30.23 in 10.0 mi SSE 5.8 mph - N/A   Clear
8:51 PM 57.0 °F 46.9 °F 69% 30.22 in 10.0 mi SSE 6.9 mph - N/A   Clear
9:51 PM 57.0 °F 46.9 °F 69% 30.20 in 10.0 mi SSE 6.9 mph - N/A   Clear
10:51 PM 55.9 °F 46.9 °F 72% 30.21 in 10.0 mi SSE 4.6 mph - N/A   Clear
11:51 PM 55.0 °F 46.9 °F 74% 30.22 in 10.0 mi South 3.5 mph - N/A   Scattered Clouds